Weather History for Pittsfield, IL

Change the Weather History Date:

Wednesday, April 16, 2014

  Actual Average (KUIN) Record (KUIN)
Temperature  
Mean Temperature 46 °F 54 °F  
Max Temperature 59 °F 64 °F 87 °F (2002)
Min Temperature 34 °F 43 °F 26 °F (1905)
Degree Days  
Heating Degree Days 19 12  
Month to date heating degree days 232  
Since 1 July heating degree days 5292  
Cooling Degree Days 0 1  
Month to date cooling degree days 3  
Year to date cooling degree days 5  
Moisture  
Dew Point 26 °F    
Average Humidity 48    
Maximum Humidity 72    
Minimum Humidity 28    
Precipitation  
Precipitation 0.00 in 0.13 in 1.56 in (1921)
Month to date precipitation 1.86  
Year to date precipitation 7.72  
Sea Level Pressure  
Sea Level Pressure 30.12 in    
Wind  
Wind Speed 12 mph (SSE)    
Max Wind Speed 28 mph    
Max Gust Speed 34 mph    
Visibility 10 miles    
Events      
T = Trace of Precipitation, MM = Missing Value Source: NWS Daily Summary

Daily Weather History Graph

Daily Weather History Graph

Search for Another Location

Airport:

Trip Planner

Search our weather history database for the weather conditions in past years. The results will help you decide how hot, cold, wet, or windy it might be!

Date:

Astronomy

Apr. 16, 2014 Rise Set
Actual Time 6:24 AM CDT 7:42 PM CDT
Civil Twilight 5:56 AM CDT 8:10 PM CDT
Nautical Twilight 5:22 AM CDT 8:43 PM CDT
Astronomical Twilight 4:47 AM CDT 9:19 PM CDT
Moon 9:25 PM CDT (4/16) 7:11 AM CDT (4/16)
Length of Visible Light 14h 13m
Length of Day
13h 17m
Full, 98% of the Moon is Illuminated
Apr 16
Full
Apr 22
Last Quarter
Apr 29
New
May 6
First Quarter
May 14
Full

Hourly Weather History & Observations

Time (CDT) Temp. Windchill Dew Point Humidity Pressure Visibility Wind Dir Wind Speed Gust Speed Precip Events Conditions
12:15 AM 36.3 °F 31.6 °F 24.1 °F 61% 30.17 in 10.0 mi SE 5.8 mph - N/A   Clear
12:35 AM 34.7 °F 29.6 °F 25.3 °F 69% 30.18 in 10.0 mi SSE 5.8 mph - N/A   Clear
12:55 AM 34.5 °F 30.4 °F 25.3 °F 69% 30.18 in 10.0 mi SSE 4.6 mph - N/A   Clear
1:15 AM 35.1 °F 30.1 °F 24.8 °F 66% 30.18 in 10.0 mi SE 5.8 mph - N/A   Clear
1:35 AM 34.9 °F 29.0 °F 24.3 °F 65% 30.18 in 10.0 mi SE 6.9 mph - N/A   Clear
1:55 AM 34.7 °F 28.8 °F 25.2 °F 68% 30.18 in 10.0 mi SE 6.9 mph - N/A   Clear
2:15 AM 35.2 °F 28.8 °F 25.3 °F 67% 30.17 in 10.0 mi SE 8.1 mph - N/A   Clear
2:35 AM 35.6 °F 29.2 °F 25.5 °F 67% 30.17 in 10.0 mi SSE 8.1 mph - N/A   Clear
2:55 AM 35.6 °F 28.6 °F 25.7 °F 67% 30.18 in 10.0 mi SE 9.2 mph - N/A   Clear
3:15 AM 35.4 °F 29.0 °F 25.7 °F 68% 30.18 in 10.0 mi SE 8.1 mph - N/A   Clear
3:35 AM 34.7 °F 28.1 °F 26.4 °F 72% 30.18 in 10.0 mi SSE 8.1 mph - N/A   Clear
3:55 AM 34.7 °F 27.5 °F 26.6 °F 72% 30.18 in 10.0 mi SE 9.2 mph - N/A   Clear
4:15 AM 35.1 °F 27.9 °F 26.4 °F 71% 30.17 in 10.0 mi SE 9.2 mph - N/A   Clear
4:35 AM 34.7 °F 27.5 °F 26.6 °F 72% 30.16 in 10.0 mi SE 9.2 mph - N/A   Clear
4:55 AM 35.6 °F 28.0 °F 26.6 °F 70% 30.16 in 10.0 mi SSE 10.4 mph - N/A   Clear
5:15 AM 34.9 °F 27.1 °F 26.6 °F 72% 30.16 in 10.0 mi SSE 10.4 mph - N/A   Clear
5:35 AM 35.1 °F 28.6 °F 26.4 °F 71% 30.16 in 10.0 mi SE 8.1 mph - N/A   Clear
5:55 AM 35.4 °F 28.4 °F 26.1 °F 69% 30.16 in 10.0 mi SSE 9.2 mph - N/A   Clear
6:15 AM 35.4 °F 27.8 °F 26.2 °F 69% 30.17 in 10.0 mi SE 10.4 mph - N/A   Clear
6:35 AM 34.7 °F 27.5 °F 26.6 °F 72% 30.17 in 10.0 mi SE 9.2 mph - N/A   Clear
6:55 AM 35.1 °F 27.4 °F 26.6 °F 71% 30.18 in 10.0 mi SE 10.4 mph - N/A   Clear
7:15 AM 36.0 °F 28.5 °F 27.0 °F 70% 30.18 in 10.0 mi SE 10.4 mph - N/A   Clear
7:35 AM 37.6 °F 30.0 °F 27.3 °F 66% 30.19 in 10.0 mi SE 11.5 mph - N/A   Clear
7:55 AM 39.6 °F 30.6 °F 27.1 °F 61% 30.19 in 10.0 mi SSE 17.3 mph - N/A   Clear
8:15 AM 41.2 °F 34.1 °F 26.8 °F 57% 30.20 in 10.0 mi SSE 12.7 mph - N/A   Clear
8:35 AM 42.8 °F 35.1 °F 27.3 °F 54% 30.19 in 10.0 mi SSE 16.1 mph 21.9 mph N/A   Clear
8:55 AM 43.0 °F 35.1 °F 26.8 °F 53% 30.19 in 10.0 mi SSE 17.3 mph - N/A   Clear
9:15 AM 44.8 °F 37.1 °F 27.0 °F 50% 30.18 in 10.0 mi SSE 18.4 mph 21.9 mph N/A   Clear
9:35 AM 46.4 °F 39.2 °F 27.9 °F 48% 30.18 in 10.0 mi South 18.4 mph 23.0 mph N/A   Clear
9:55 AM 48.2 °F - 28.8 °F 47% 30.19 in 10.0 mi SSE 18.4 mph 25.3 mph N/A   Clear
10:15 AM 48.2 °F - 27.3 °F 44% 30.18 in 10.0 mi SSE 19.6 mph 25.3 mph N/A   Clear
10:35 AM 48.9 °F - 28.6 °F 45% 30.19 in 10.0 mi SSE 18.4 mph 24.2 mph N/A   Clear
10:55 AM 50.0 °F - 29.3 °F 45% 30.18 in 10.0 mi SE 20.7 mph - N/A   Clear
11:15 AM 51.3 °F - 29.3 °F 43% 30.18 in 10.0 mi SE 19.6 mph 26.5 mph N/A   Clear
11:35 AM 52.0 °F - 27.3 °F 39% 30.18 in 10.0 mi SSE 24.2 mph 31.1 mph N/A   Clear
11:55 AM 52.7 °F - 26.6 °F 36% 30.17 in 10.0 mi SSE 27.6 mph 32.2 mph N/A   Clear
12:15 PM 54.7 °F - 28.0 °F 36% 30.16 in 10.0 mi SSE 23.0 mph 33.4 mph N/A   Clear
12:35 PM 54.3 °F - 26.2 °F 34% 30.16 in 10.0 mi SSE 21.9 mph 33.4 mph N/A   Clear
12:55 PM 54.9 °F - 26.2 °F 33% 30.14 in 10.0 mi South 25.3 mph 31.1 mph N/A   Clear
1:15 PM 55.9 °F - 27.7 °F 34% 30.13 in 10.0 mi South 23.0 mph 27.6 mph N/A   Clear
1:35 PM 56.1 °F - 26.6 °F 32% 30.12 in 10.0 mi SSE 19.6 mph - N/A   Clear
1:55 PM 57.2 °F - 27.3 °F 32% 30.11 in 10.0 mi SSE 21.9 mph 25.3 mph N/A   Clear
2:15 PM 56.7 °F - 25.2 °F 30% 30.10 in 10.0 mi SSE 21.9 mph 32.2 mph N/A   Clear
2:35 PM 57.9 °F - 26.4 °F 30% 30.09 in 10.0 mi SE 24.2 mph 32.2 mph N/A   Clear
2:55 PM 58.5 °F - 26.4 °F 29% 30.08 in 10.0 mi SSE 23.0 mph 32.2 mph N/A   Clear
3:15 PM 58.1 °F - 26.1 °F 29% 30.07 in 10.0 mi SSE 20.7 mph 29.9 mph N/A   Clear
3:35 PM 58.5 °F - 26.2 °F 29% 30.05 in 10.0 mi SSE 21.9 mph 31.1 mph N/A   Clear
3:55 PM 58.8 °F - 27.3 °F 30% 30.05 in 10.0 mi SSE 25.3 mph 31.1 mph N/A   Clear
4:15 PM 58.3 °F - 25.5 °F 28% 30.04 in 10.0 mi SSE 20.7 mph 31.1 mph N/A   Clear
4:35 PM 58.5 °F - 26.6 °F 30% 30.04 in 10.0 mi SSE 24.2 mph 28.8 mph N/A   Clear
4:55 PM 58.1 °F - 26.1 °F 29% 30.03 in 10.0 mi SSE 23.0 mph 28.8 mph N/A   Clear
5:15 PM 57.7 °F - 26.2 °F 30% 30.01 in 10.0 mi SSE 19.6 mph 27.6 mph N/A   Clear
5:35 PM 57.6 °F - 26.1 °F 30% 30.01 in 10.0 mi SSE 24.2 mph 34.5 mph N/A   Clear
5:55 PM 57.0 °F - 26.4 °F 31% 30.00 in 10.0 mi SE 19.6 mph 27.6 mph N/A   Clear
6:15 PM 57.0 °F - 26.1 °F 30% 30.00 in 10.0 mi SSE 21.9 mph 26.5 mph N/A   Clear
6:35 PM 56.3 °F - 25.3 °F 30% 30.00 in 10.0 mi SSE 23.0 mph 27.6 mph N/A   Clear
6:55 PM 55.8 °F - 25.0 °F 31% 30.02 in 10.0 mi SSE 16.1 mph 25.3 mph N/A   Clear
7:15 PM 54.9 °F - 24.8 °F 31% 30.02 in 10.0 mi SSE 17.3 mph 23.0 mph N/A   Clear
7:35 PM 53.4 °F - 25.0 °F 33% 30.02 in 10.0 mi SSE 13.8 mph 17.3 mph N/A   Clear
7:55 PM 52.2 °F - 24.8 °F 35% 30.04 in 10.0 mi SSE 11.5 mph - N/A   Clear
8:15 PM 52.2 °F - 24.4 °F 34% 30.05 in 10.0 mi SSE 10.4 mph 16.1 mph N/A   Clear
8:35 PM 51.3 °F - 24.8 °F 36% 30.06 in 10.0 mi SSE 9.2 mph - N/A   Clear
8:55 PM 49.6 °F - 25.7 °F 39% 30.07 in 10.0 mi SSE 9.2 mph - N/A   Clear
9:15 PM 49.3 °F - 26.1 °F 40% 30.07 in 10.0 mi SE 10.4 mph - N/A   Clear
9:35 PM 48.4 °F - 26.4 °F 42% 30.08 in 10.0 mi SE 10.4 mph - N/A   Clear
9:55 PM 48.0 °F - 26.6 °F 43% 30.08 in 10.0 mi SE 11.5 mph - N/A   Clear
10:15 PM 48.2 °F - 27.0 °F 44% 30.08 in 10.0 mi SE 11.5 mph - N/A   Clear
10:35 PM 48.2 °F - 27.0 °F 44% 30.08 in 10.0 mi SE 13.8 mph - N/A   Clear
10:55 PM 47.7 °F - 27.5 °F 46% 30.08 in 10.0 mi SSE 12.7 mph - N/A   Clear
11:15 PM 46.9 °F - 28.4 °F 49% 30.08 in 10.0 mi SSE 10.4 mph - N/A   Clear
11:35 PM 46.4 °F 40.7 °F 28.4 °F 50% 30.08 in 10.0 mi SSE 12.7 mph - N/A   Clear
11:55 PM 48.2 °F - 28.0 °F 46% 30.08 in 10.0 mi South 12.7 mph - N/A   Clear